Simultaneous Nadir Overpasses (SNOs) Predictions

Prediction of SNOs between AQUA and GOES-15 Satellite Orbit:

Table of predicted SNOs for the next 14.0 days since TLE Epoch: 12/28/2012
Index Date Time (AQUA) AQUA Lat,Lon GOES-15 Lat,Lon Distance(km) Time Diff (sec)
1 12/29/2012 22:35:22 0.16,-135.03 0.09,-135.41 43.12 80
2 12/31/2012 22:23:10 0.77,-132.07 0.09,-135.39 377.39 80
3 01/01/2013 10:44:26 0.29,-137.23 -0.10,-135.41 206.48 80
4 01/03/2013 10:32:13 -0.31,-134.26 -0.10,-135.39 127.42 80
5 01/03/2013 22:53:36 -0.78,-139.45 0.11,-135.34 467.45 80
6 01/05/2013 10:20:00 -0.96,-131.30 -0.09,-135.35 460.89 80
7 01/05/2013 22:41:24 -0.12,-136.49 0.10,-135.31 134.00 80
8 01/07/2013 22:29:09 0.46,-133.51 0.09,-135.26 198.95 80
9 01/08/2013 10:50:23 0.62,-138.67 -0.10,-135.28 384.53 80
10 01/10/2013 10:38:08 -0.02,-135.69 -0.09,-135.23 52.27 80




NCC Satellite Simultaneous Nadir Overpasses (SNOs) Prediction Service
